TimeMST,TemperatureF,Dew PointF,Humidity,Sea Level PressureIn,VisibilityMPH,Wind Direction,Wind SpeedMPH,Gust SpeedMPH,PrecipitationIn,Events,Conditions,WindDirDegrees,DateUTC
12:15 AM,66.2,17.6,15,29.87,10.0,SSE,6.9,-,N/A,,Clear,150,2013-03-26 07:15:00
12:35 AM,66.2,19.4,17,29.87,10.0,SE,8.1,-,N/A,,Clear,140,2013-03-26 07:35:00
12:55 AM,66.2,17.6,15,29.87,10.0,SSE,8.1,-,N/A,,Clear,160,2013-03-26 07:55:00
1:15 AM,66.2,17.6,15,29.87,10.0,South,3.5,-,N/A,,Clear,180,2013-03-26 08:15:00
1:35 AM,64.4,19.4,18,29.87,10.0,Calm,Calm,-,N/A,,Unknown,0,2013-03-26 08:35:00
1:55 AM,62.6,19.4,19,29.87,10.0,SE,4.6,-,N/A,,Clear,140,2013-03-26 08:55:00
2:15 AM,62.6,21.2,20,29.86,10.0,SE,4.6,-,N/A,,Clear,140,2013-03-26 09:15:00
2:35 AM,62.6,21.2,20,29.86,10.0,South,4.6,-,N/A,,Clear,170,2013-03-26 09:35:00
2:55 AM,62.6,19.4,19,29.85,10.0,South,4.6,-,N/A,,Clear,170,2013-03-26 09:55:00
3:15 AM,60.8,21.2,22,29.85,10.0,SSE,4.6,-,N/A,,Clear,150,2013-03-26 10:15:00
3:35 AM,62.6,19.4,19,29.84,10.0,Calm,Calm,-,N/A,,Clear,0,2013-03-26 10:35:00
3:55 AM,62.6,19.4,19,29.84,10.0,SE,5.8,-,N/A,,Clear,130,2013-03-26 10:55:00
4:15 AM,62.6,19.4,19,29.84,10.0,SE,6.9,-,N/A,,Clear,140,2013-03-26 11:15:00
4:35 AM,60.8,19.4,20,29.84,10.0,SE,8.1,-,N/A,,Clear,140,2013-03-26 11:35:00
4:55 AM,62.6,19.4,19,29.84,10.0,Calm,Calm,-,N/A,,Clear,0,2013-03-26 11:55:00
5:15 AM,62.6,19.4,19,29.85,10.0,ESE,4.6,-,N/A,,Clear,110,2013-03-26 12:15:00
5:35 AM,62.6,19.4,19,29.85,10.0,SE,3.5,-,N/A,,Clear,130,2013-03-26 12:35:00
5:55 AM,60.8,19.4,20,29.86,10.0,Calm,Calm,-,N/A,,Clear,0,2013-03-26 12:55:00
6:15 AM,59.0,19.4,22,29.86,10.0,Calm,Calm,-,N/A,,Clear,0,2013-03-26 13:15:00
6:35 AM,59.0,23.0,25,29.86,10.0,Calm,Calm,-,N/A,,Clear,0,2013-03-26 13:35:00
6:55 AM,59.0,19.4,22,29.87,10.0,Calm,Calm,-,N/A,,Clear,0,2013-03-26 13:55:00
7:15 AM,59.0,21.2,23,29.87,10.0,SE,5.8,-,N/A,,Clear,130,2013-03-26 14:15:00
7:35 AM,62.6,23.0,22,29.87,10.0,Calm,Calm,-,N/A,,Clear,0,2013-03-26 14:35:00
7:55 AM,62.6,23.0,22,29.87,10.0,SE,3.5,-,N/A,,Clear,130,2013-03-26 14:55:00
8:15 AM,62.6,23.0,22,29.88,10.0,SW,3.5,-,N/A,,Clear,220,2013-03-26 15:15:00
8:35 AM,64.4,24.8,22,29.88,10.0,SSE,6.9,-,N/A,,Clear,150,2013-03-26 15:35:00
8:55 AM,68.0,19.4,16,29.88,10.0,SSE,5.8,-,N/A,,Clear,150,2013-03-26 15:55:00
9:15 AM,68.0,19.4,16,29.89,10.0,South,5.8,-,N/A,,Clear,170,2013-03-26 16:15:00
9:35 AM,68.0,19.4,16,29.89,10.0,South,6.9,-,N/A,,Clear,170,2013-03-26 16:35:00
9:55 AM,71.6,19.4,14,29.88,10.0,South,4.6,-,N/A,,Clear,190,2013-03-26 16:55:00
10:15 AM,71.6,19.4,14,29.88,10.0,SW,4.6,-,N/A,,Clear,220,2013-03-26 17:15:00
10:35 AM,73.4,21.2,14,29.88,10.0,SW,5.8,-,N/A,,Clear,220,2013-03-26 17:35:00
10:55 AM,75.2,21.2,13,29.88,10.0,SW,9.2,-,N/A,,Clear,220,2013-03-26 17:55:00
11:15 AM,75.2,19.4,12,29.87,10.0,SW,11.5,-,N/A,,Clear,220,2013-03-26 18:15:00
11:35 AM,77.0,19.4,12,29.86,10.0,SW,13.8,-,N/A,,Clear,220,2013-03-26 18:35:00
11:55 AM,80.6,19.4,10,29.85,10.0,SSW,12.7,18.4,N/A,,Clear,210,2013-03-26 18:55:00
12:15 PM,80.6,21.2,11,29.85,10.0,SW,17.3,23.0,N/A,,Clear,220,2013-03-26 19:15:00
12:35 PM,80.6,23.0,12,29.84,10.0,South,17.3,21.9,N/A,,Clear,190,2013-03-26 19:35:00
12:55 PM,82.4,23.0,11,29.83,10.0,South,18.4,-,N/A,,Clear,170,2013-03-26 19:55:00
1:15 PM,82.4,21.2,10,29.82,10.0,South,15.0,20.7,N/A,,Clear,190,2013-03-26 20:15:00
1:35 PM,82.4,21.2,10,29.82,10.0,South,12.7,25.3,N/A,,Clear,190,2013-03-26 20:35:00
1:55 PM,84.2,21.2,10,29.80,10.0,SSE,17.3,23.0,N/A,,Clear,160,2013-03-26 20:55:00
2:15 PM,84.2,21.2,10,29.79,10.0,SSE,13.8,19.6,N/A,,Clear,160,2013-03-26 21:15:00
2:35 PM,86.0,21.2,9,29.78,10.0,South,17.3,23.0,N/A,,Clear,170,2013-03-26 21:35:00
2:55 PM,84.2,19.4,9,29.77,10.0,South,20.7,27.6,N/A,,Clear,190,2013-03-26 21:55:00
3:15 PM,86.0,21.2,9,29.76,10.0,SSE,18.4,27.6,N/A,,Clear,160,2013-03-26 22:15:00
3:35 PM,86.0,8.6,5,29.75,10.0,South,21.9,26.5,N/A,,Clear,190,2013-03-26 22:35:00
3:55 PM,86.0,10.4,6,29.75,10.0,South,20.7,26.5,N/A,,Clear,190,2013-03-26 22:55:00
4:15 PM,86.0,10.4,6,29.74,10.0,South,17.3,23.0,N/A,,Clear,180,2013-03-26 23:15:00
4:35 PM,86.0,10.4,6,29.74,10.0,South,13.8,19.6,N/A,,Clear,170,2013-03-26 23:35:00
4:55 PM,86.0,8.6,5,29.73,10.0,South,13.8,20.7,N/A,,Clear,180,2013-03-26 23:55:00
5:15 PM,86.0,10.4,6,29.73,10.0,South,13.8,21.9,N/A,,Clear,170,2013-03-27 00:15:00
5:35 PM,84.2,10.4,6,29.73,10.0,South,12.7,24.2,N/A,,Clear,180,2013-03-27 00:35:00
5:55 PM,84.2,10.4,6,29.73,10.0,South,13.8,-,N/A,,Clear,170,2013-03-27 00:55:00
6:15 PM,84.2,10.4,6,29.73,10.0,SSE,15.0,-,N/A,,Clear,160,2013-03-27 01:15:00
6:35 PM,84.2,10.4,6,29.73,10.0,SSE,13.8,-,N/A,,Clear,160,2013-03-27 01:35:00
6:55 PM,82.4,14.0,8,29.73,10.0,South,11.5,-,N/A,,Clear,170,2013-03-27 01:55:00
7:15 PM,80.6,14.0,8,29.73,10.0,SSE,12.7,-,N/A,,Clear,160,2013-03-27 02:15:00
7:35 PM,80.6,14.0,8,29.73,10.0,SSE,11.5,-,N/A,,Clear,160,2013-03-27 02:35:00
7:55 PM,80.6,14.0,8,29.74,10.0,South,11.5,-,N/A,,Clear,170,2013-03-27 02:55:00
8:15 PM,77.0,15.8,10,29.75,10.0,Calm,Calm,-,N/A,,Clear,0,2013-03-27 03:15:00
8:35 PM,75.2,15.8,11,29.75,10.0,South,3.5,-,N/A,,Clear,170,2013-03-27 03:35:00
8:55 PM,71.6,15.8,12,29.76,10.0,ESE,6.9,-,N/A,,Clear,120,2013-03-27 03:55:00
9:15 PM,73.4,15.8,11,29.76,10.0,Calm,Calm,-,N/A,,Clear,0,2013-03-27 04:15:00
9:35 PM,73.4,15.8,11,29.77,10.0,ENE,5.8,-,N/A,,Clear,60,2013-03-27 04:35:00
9:55 PM,71.6,15.8,12,29.78,10.0,Calm,Calm,-,N/A,,Clear,0,2013-03-27 04:55:00
10:15 PM,69.8,15.8,13,29.79,10.0,Calm,Calm,-,N/A,,Clear,0,2013-03-27 05:15:00
10:35 PM,68.0,15.8,13,29.79,10.0,ESE,4.6,-,N/A,,Clear,110,2013-03-27 05:35:00
10:55 PM,66.2,17.6,15,29.79,10.0,East,3.5,-,N/A,,Clear,90,2013-03-27 05:55:00
11:15 PM,66.2,17.6,15,29.79,10.0,ESE,9.2,-,N/A,,Clear,120,2013-03-27 06:15:00
11:35 PM,69.8,17.6,14,29.79,10.0,SSE,9.2,-,N/A,,Clear,150,2013-03-27 06:35:00
11:55 PM,71.6,15.8,12,29.80,10.0,ESE,3.5,-,N/A,,Clear,120,2013-03-27 06:55:00